{"data":{"norad_id":52132,"intl_designator":"2022-029AW","name":"STARLINK-3718","alt_names":[],"object_type":"PAYLOAD","status":"ACTIVE","operator":null,"country":"US","launch_date":"2022-03-19","launch_site_code":"AFETR","launch_vehicle":null,"mission":null,"orbit_class":"UNKNOWN","rcs_meters":null,"size_class":null,"mass_kg":null,"dimensions":null,"purposes":["comms"],"wikipedia_slug":null,"has_3d_model":false,"image_url":null,"decayed_at":null,"tle_current":{"epoch":"2026-05-25T02:57:52.674048Z","epoch_age_seconds":74893,"freshness":"FRESH","line1":"1 52132U 22029AW  26145.12352632 -.00000751  00000+0 -29099-4 0  9997","line2":"2 52132  53.2140  85.9948 0001322  74.4716 285.6422 15.08841322232471","mean_motion":15.08841322,"eccentricity":0.0001322,"inclination_deg":53.214,"raan_deg":85.9948,"arg_perigee_deg":74.4716,"mean_anomaly_deg":285.6422,"bstar":-2.9099e-5,"rev_number":23247,"period_min":95.437471058338,"perigee_km":538.8248048887,"apogee_km":540.65389139515,"semimajor_km":6917.8763481419,"source":"CELESTRAK","updated_at":"2026-05-25T13:38:17.077595Z"}}}